Wind_Speed
18 19 19 20 20 21 22 23 26 26 26 28 29 30 31 33 36 38 40 43 46 48 50 53 56 59 61 63 67 68 72 73 69 66 70 66 72 71 75 71 68 69 70 74 78
19 19 20 20 21 23 24 25 26 27 27 28 30 32 32 34 35 37 38 42 44 47 50 54 57 61 64 68 70 73 77 75 72 73 76 77 77 75 75 74 70 70 72 78 83
19 19 19 20 21 21 22 23 25 27 28 28 30 32 33 34 34 37 38 42 45 47 50 55 58 61 65 70 72 77 80 79 78 78 79 81 81 74 73 77 75 76 77 81 85
19 20 21 20 22 24 26 27 28 30 31 31 32 32 34 36 38 39 41 45 48 49 52 56 59 62 66 71 75 79 78 79 80 79 80 78 79 82 78 80 77 78 78 76 81
24 25 25 25 27 28 28 29 31 32 33 33 33 35 38 39 41 45 47 50 52 53 56 58 60 64 70 73 74 77 76 78 79 80 82 80 82 81 84 81 72 65 67 70 73
30 30 29 29 30 31 31 30 33 34 36 37 37 37 40 44 45 50 52 54 55 57 59 63 64 69 71 72 75 77 78 80 82 83 83 83 80 79 82 69 63 62 64 66 69
32 32 31 30 30 31 32 32 34 36 37 38 40 41 42 45 50 52 55 57 59 60 63 65 69 72 74 74 76 78 80 82 83 82 83 73 78 78 68 54 53 55 56 59 65
31 32 34 33 34 35 36 36 35 36 38 39 41 43 45 51 50 55 58 60 62 65 67 70 73 74 75 76 78 82 85 85 76 77 72 57 68 66 60 48 49 49 50 55 59
31 32 33 35 35 34 36 37 38 37 38 41 44 46 50 51 55 58 61 64 66 69 71 72 75 77 76 80 84 83 83 78 73 65 48 50 64 61 57 52 51 47 48 49 52
31 32 35 37 36 34 34 37 39 38 40 43 46 50 50 53 57 60 64 67 69 71 75 76 79 77 80 84 84 77 72 71 68 60 61 59 55 55 52 52 51 48 50 50 49
31 33 36 37 36 36 36 35 36 36 38 45 48 52 53 57 61 63 67 70 72 74 76 78 81 78 85 78 77 70 68 68 65 58 52 52 55 50 49 41 43 47 44 47 50
33 32 36 36 35 36 37 39 41 42 41 46 53 52 56 59 62 64 70 72 73 77 78 78 78 81 77 74 70 62 61 53 49 43 41 46 45 45 40 40 38 30 24 27 30
38 35 35 35 35 36 38 40 42 44 47 51 51 55 58 62 65 68 71 73 74 77 79 82 82 80 80 75 63 52 50 50 52 49 42 41 43 36 24 34 30 27 26 28 29
40 36 38 34 38 39 40 44 47 47 53 53 57 61 64 65 68 70 74 73 75 79 80 82 82 83 82 71 46 47 46 52 45 43 43 31 44 26 29 25 19 29 25 27 31
42 37 37 40 41 43 44 48 51 54 59 59 62 65 67 68 71 71 75 74 76 81 83 81 86 84 77 55 33 44 42 35 37 37 41 32 38 34 15 9 17 23 27 29 29
41 40 39 41 42 45 47 51 55 58 57 65 67 69 71 70 71 73 75 76 78 80 81 85 84 75 66 50 33 33 37 31 28 26 26 19 17 26 16 19 22 26 30 26 29
40 41 42 43 45 49 52 57 61 61 66 69 71 72 72 73 74 75 77 78 81 83 82 82 82 72 56 46 33 31 36 35 27 20 25 17 26 29 26 16 19 24 25 28 31
46 47 48 49 50 53 55 59 61 66 70 71 74 75 76 77 78 77 76 76 81 82 86 86 86 71 53 35 38 21 26 26 29 29 29 19 21 12 22 24 20 21 24 26 27
50 51 50 53 55 57 60 64 65 71 75 77 78 79 79 77 78 77 76 77 81 82 83 85 80 64 46 37 24 24 24 22 24 22 24 22 19 13 21 24 22 24 26 23 27
52 54 58 58 60 62 65 68 71 75 80 79 80 80 79 79 78 77 75 77 79 82 83 79 79 60 42 33 13 18 20 20 18 24 29 26 22 15 15 21 22 25 25 26 26
54 58 59 61 64 68 69 70 74 78 82 82 80 80 76 78 77 75 73 76 79 79 78 74 71 62 43 19 18 17 19 20 21 21 25 30 10 19 22 24 24 26 27 30 30
59 61 62 64 67 67 69 74 77 83 85 83 81 75 73 75 74 72 73 76 76 79 77 71 65 59 45 29 21 15 15 17 20 22 24 30 14 25 21 24 30 28 30 31 31
63 62 65 67 71 72 75 78 83 85 86 82 76 71 70 72 71 69 73 73 75 76 75 70 57 52 42 19 12 14 18 19 22 25 19 29 24 19 22 26 27 29 29 29 31
64 64 67 71 74 77 80 82 86 87 83 75 68 66 68 68 69 69 71 70 71 73 71 62 46 44 34 12 16 18 20 27 31 18 19 15 21 20 20 23 23 25 27 29 28
70 73 75 79 82 83 86 86 84 77 72 65 65 65 67 67 64 67 71 68 65 68 64 49 42 33 17 11 13 11 10 15 18 16 17 17 17 18 19 21 21 24 27 29 29
76 81 82 82 84 86 83 79 75 67 62 61 63 63 64 65 69 70 70 67 65 61 58 42 33 20 11 9 9 6 3 9 9 8 14 15 15 17 17 20 21 22 28 32 31
80 85 84 83 84 79 71 67 63 60 60 62 62 62 62 64 65 68 67 66 63 60 47 34 22 11 7 7 9 2 5 6 9 12 12 12 13 14 16 17 19 21 23 29 30
Wind_Direction
357 351 350 347 342 338 337 338 334 331 329 324 324 323 321 322 322 319 317 315 312 310 308 306 304 302 301 299 299 298 295 295 298 292 289 283 277 274 272 270 267 268 269 266 264
353 348 347 345 343 341 339 335 330 328 325 324 323 323 321 319 318 316 315 312 310 309 307 305 302 301 300 298 298 297 295 294 292 290 287 285 281 280 278 275 270 269 267 264 262
348 348 345 340 333 330 329 327 326 323 324 322 321 324 321 318 317 314 314 312 309 307 305 303 302 301 299 297 297 295 294 293 289 288 286 283 281 282 279 276 277 274 269 263 260
342 341 339 335 331 327 322 325 323 322 321 322 321 321 319 317 317 315 312 312 309 307 306 304 303 301 298 297 296 295 295 292 289 287 286 285 282 281 281 282 279 276 274 267 260
341 339 339 335 331 329 324 319 319 318 318 319 320 322 320 319 317 316 315 313 311 308 306 305 304 302 301 298 297 297 295 292 290 287 285 285 283 283 280 283 283 277 270 266 260
352 348 341 333 332 329 323 317 315 317 317 319 321 321 321 320 319 317 315 315 313 312 310 308 307 306 304 302 301 298 294 292 290 290 291 290 288 285 284 284 277 272 267 261 258
350 347 338 333 330 328 325 321 316 316 317 318 321 321 323 322 320 318 318 316 315 315 315 313 313 310 306 306 302 298 294 291 292 292 290 288 285 287 286 280 273 269 263 262 261
340 341 339 334 329 326 324 322 320 317 317 320 322 322 322 322 321 321 320 318 318 318 318 317 314 311 311 308 302 300 298 298 296 292 292 293 286 286 285 284 279 274 271 264 260
333 334 341 337 329 325 323 322 321 319 318 321 323 322 322 322 322 322 322 321 321 321 319 318 315 314 312 306 305 305 302 300 298 292 280 275 286 287 289 290 287 286 281 273 267
334 328 332 335 332 325 324 323 322 321 320 320 322 325 326 324 324 325 323 323 322 321 320 319 316 318 311 311 310 309 304 298 294 291 289 287 275 278 280 283 284 287 285 280 271
333 329 329 333 332 329 327 326 322 322 320 323 324 325 325 325 326 326 325 324 323 322 321 319 318 320 314 314 313 310 302 295 293 294 289 287 285 289 285 287 288 294 289 278 271
334 329 330 332 333 330 330 328 327 326 324 324 326 328 328 327 325 326 326 325 323 323 321 320 322 317 316 314 314 305 296 293 296 300 293 295 293 288 289 293 297 280 285 286 282
333 331 331 330 330 330 329 328 327 328 325 327 329 330 329 329 326 327 326 325 324 323 321 321 322 320 318 318 319 302 292 295 296 300 297 300 292 299 300 297 281 275 278 272 272
330 330 328 330 329 330 330 329 327 328 327 330 331 331 330 330 328 327 326 325 324 324 322 324 323 322 322 323 314 296 294 297 302 297 304 303 302 307 304 290 273 265 271 277 275
326 326 324 325 328 329 329 329 329 329 328 330 331 330 330 330 327 327 326 325 325 325 325 327 324 325 325 325 312 295 304 305 300 297 293 302 301 313 324 288 274 276 284 288 279
321 321 321 325 326 326 326 330 330 331 331 331 332 330 330 328 327 325 325 326 326 325 325 327 327 328 325 322 308 303 311 311 306 305 303 326 303 308 307 284 253 272 284 287 284
317 318 321 324 325 326 327 328 330 332 332 330 330 328 329 327 326 327 327 328 327 326 327 328 328 327 322 316 311 294 308 314 317 307 295 306 285 302 312 289 289 287 291 294 291
315 316 319 322 324 325 326 327 329 331 331 329 328 327 328 328 327 328 327 327 327 327 328 329 330 329 325 318 314 290 301 313 314 316 312 304 300 323 310 312 307 302 301 298 300
314 315 318 319 322 322 325 326 328 329 328 330 330 327 328 326 326 326 328 328 328 328 329 330 330 327 318 313 304 288 298 305 299 311 312 312 318 302 295 297 307 318 309 309 312
314 313 316 316 319 320 323 324 324 326 325 328 327 327 327 326 326 327 329 329 328 329 329 331 328 329 319 309 302 306 296 300 317 308 305 306 314 341 307 297 308 316 317 321 319
315 314 317 318 320 318 319 320 321 322 324 325 326 326 325 325 326 327 329 327 329 329 329 330 327 332 321 303 286 269 290 292 296 302 309 311 342 333 322 309 324 328 333 331 332
307 314 315 318 319 321 320 320 320 322 321 322 324 324 324 325 326 327 327 329 328 328 330 330 331 328 325 306 287 286 299 302 287 295 283 299 334 331 318 322 330 332 337 334 333
309 310 312 314 317 319 319 319 319 319 319 321 322 323 323 324 324 328 326 330 328 329 331 333 335 324 327 298 233 297 298 276 284 285 290 303 319 329 325 328 330 335 338 337 335
313 312 312 311 312 315 317 317 316 317 319 320 321 322 322 325 325 328 328 329 329 330 331 332 333 319 325 318 243 244 244 270 282 278 306 340 314 323 322 327 332 338 343 344 340
309 310 309 309 312 313 314 316 317 317 318 321 323 322 323 324 325 326 328 330 330 331 331 332 334 330 323 340 316 323 312 251 260 297 299 314 317 321 320 329 341 344 350 353 351
303 305 308 309 310 310 313 315 317 316 320 323 323 323 322 324 326 327 329 329 331 331 331 335 338 334 347 9 23 46 298 258 269 292 303 304 324 322 326 337 347 349 355 351 356
300 303 305 307 308 310 315 318 318 318 323 323 322 323 323 324 327 328 330 331 331 332 332 332 342 356 35 25 353 284 262 291 299 300 297 299 321 323 326 338 349 352 350 349 359
Height
5772 5770 5767 5765 5762 5759 5757 5754 5751 5749 5745 5742 5738 5735 5731 5727 5723 5718 5714 5709 5705 5700 5695 5689 5685 5680 5673 5666 5658 5650 5643 5639 5637 5628 5626 5630 5616 5616 5611 5621 5624 5622 5622 5616 5609
5771 5769 5766 5764 5761 5758 5755 5752 5749 5745 5741 5738 5733 5729 5726 5722 5718 5712 5708 5702 5697 5691 5686 5680 5674 5668 5661 5654 5646 5636 5628 5626 5620 5611 5600 5603 5596 5595 5587 5593 5603 5602 5600 5592 5583
5772 5769 5766 5762 5759 5756 5752 5749 5745 5741 5737 5733 5729 5725 5721 5716 5713 5707 5700 5695 5689 5682 5676 5669 5663 5657 5648 5637 5631 5623 5615 5609 5604 5592 5583 5581 5576 5574 5568 5569 5578 5575 5571 5565 5559
5770 5766 5763 5760 5756 5753 5749 5745 5741 5737 5732 5728 5724 5719 5714 5709 5705 5698 5694 5688 5681 5674 5666 5658 5652 5644 5634 5625 5616 5605 5598 5590 5586 5575 5565 5560 5554 5550 5543 5548 5551 5543 5538 5539 5536
5768 5765 5761 5757 5754 5750 5745 5740 5736 5732 5727 5723 5719 5714 5708 5704 5699 5691 5685 5679 5671 5664 5656 5647 5639 5630 5619 5608 5599 5588 5582 5570 5564 5553 5544 5536 5531 5524 5527 5530 5525 5517 5514 5511 5511
5766 5761 5757 5754 5750 5746 5742 5737 5731 5726 5721 5717 5713 5708 5702 5696 5690 5683 5676 5669 5661 5653 5645 5634 5625 5613 5602 5591 5580 5571 5561 5551 5541 5533 5521 5506 5502 5499 5515 5507 5496 5495 5490 5488 5489
5763 5759 5754 5749 5744 5740 5735 5731 5726 5720 5715 5710 5706 5701 5697 5689 5681 5673 5666 5657 5649 5640 5630 5617 5607 5595 5583 5574 5560 5548 5540 5533 5525 5513 5500 5488 5480 5483 5484 5484 5477 5472 5471 5473 5473
5761 5756 5751 5746 5742 5736 5729 5724 5719 5713 5707 5702 5698 5693 5687 5679 5671 5663 5655 5645 5635 5625 5614 5602 5590 5578 5567 5554 5540 5523 5514 5500 5506 5490 5480 5468 5460 5467 5461 5465 5458 5457 5457 5456 5456
5756 5752 5747 5742 5736 5731 5724 5718 5714 5709 5702 5696 5691 5684 5678 5669 5661 5652 5642 5631 5621 5610 5598 5586 5573 5562 5549 5531 5518 5507 5485 5479 5474 5472 5464 5457 5445 5448 5447 5448 5443 5443 5441 5440 5440
5753 5747 5742 5737 5730 5725 5719 5713 5707 5703 5696 5690 5685 5677 5668 5659 5649 5639 5628 5617 5607 5595 5581 5568 5554 5547 5526 5508 5491 5479 5468 5456 5448 5452 5445 5439 5435 5436 5438 5434 5431 5430 5426 5424 5425
5748 5742 5736 5730 5724 5719 5715 5711 5705 5701 5691 5683 5675 5667 5658 5649 5637 5627 5614 5603 5591 5580 5566 5552 5536 5520 5498 5486 5475 5460 5448 5437 5434 5434 5428 5423 5419 5423 5422 5421 5419 5416 5414 5411 5410
5743 5737 5731 5723 5718 5712 5706 5700 5694 5688 5684 5676 5668 5659 5649 5638 5628 5617 5603 5591 5578 5564 5549 5539 5527 5507 5490 5473 5462 5445 5434 5426 5421 5420 5415 5412 5408 5408 5411 5409 5408 5404 5403 5399 5397
5736 5731 5725 5718 5712 5705 5699 5693 5685 5679 5672 5666 5656 5647 5638 5628 5615 5603 5592 5578 5565 5552 5535 5517 5505 5489 5473 5458 5444 5433 5424 5416 5410 5407 5407 5402 5395 5399 5402 5398 5397 5397 5395 5393 5390
5729 5724 5718 5713 5706 5698 5692 5684 5676 5669 5661 5655 5645 5634 5625 5614 5601 5589 5577 5567 5553 5537 5522 5506 5491 5472 5454 5440 5429 5418 5416 5408 5402 5399 5395 5398 5384 5394 5392 5390 5389 5387 5388 5386 5384
5722 5717 5710 5702 5697 5690 5684 5675 5666 5659 5650 5643 5633 5623 5612 5600 5588 5580 5563 5551 5538 5519 5502 5492 5466 5456 5440 5428 5421 5410 5406 5400 5396 5393 5389 5394 5385 5386 5383 5383 5382 5381 5380 5379 5377
5715 5708 5703 5697 5689 5682 5674 5666 5657 5649 5639 5630 5621 5609 5598 5586 5575 5562 5549 5537 5523 5509 5497 5474 5455 5439 5424 5417 5414 5405 5399 5396 5391 5388 5385 5387 5384 5380 5382 5380 5378 5376 5373 5372 5368
5708 5702 5696 5689 5682 5672 5664 5656 5647 5636 5627 5618 5608 5597 5587 5574 5561 5548 5533 5516 5500 5487 5479 5471 5451 5434 5419 5408 5408 5399 5395 5387 5386 5384 5383 5383 5379 5378 5377 5374 5373 5370 5368 5365 5361
5700 5694 5687 5680 5672 5663 5655 5646 5636 5628 5618 5608 5597 5585 5573 5562 5550 5536 5523 5509 5491 5472 5453 5440 5428 5418 5409 5402 5394 5392 5392 5388 5381 5379 5376 5378 5376 5376 5371 5369 5367 5364 5361 5358 5354
5692 5685 5679 5672 5664 5654 5645 5636 5625 5614 5604 5595 5586 5572 5562 5548 5533 5523 5510 5495 5477 5460 5445 5426 5417 5408 5401 5395 5392 5388 5387 5386 5380 5379 5373 5371 5371 5372 5367 5364 5360 5358 5354 5351 5346
5684 5676 5669 5661 5653 5644 5635 5625 5613 5603 5591 5581 5569 5561 5544 5531 5521 5507 5498 5484 5467 5449 5433 5418 5404 5402 5391 5388 5389 5384 5384 5381 5379 5374 5369 5368 5366 5364 5363 5359 5356 5353 5348 5344 5339
5673 5664 5658 5650 5643 5635 5625 5616 5606 5593 5581 5571 5559 5546 5535 5519 5509 5497 5485 5473 5459 5444 5426 5412 5396 5391 5383 5381 5380 5380 5379 5377 5375 5373 5368 5361 5363 5361 5358 5353 5350 5346 5341 5335 5330
5662 5654 5647 5638 5632 5624 5614 5604 5595 5582 5570 5558 5549 5536 5524 5512 5502 5489 5475 5455 5444 5432 5421 5406 5391 5376 5374 5375 5374 5375 5374 5373 5371 5370 5369 5364 5360 5358 5353 5350 5345 5341 5336 5330 5325
5652 5645 5637 5626 5618 5610 5602 5592 5580 5570 5559 5548 5536 5523 5512 5502 5490 5482 5466 5451 5435 5421 5406 5396 5384 5370 5367 5365 5367 5369 5370 5369 5367 5366 5364 5360 5357 5354 5351 5348 5343 5337 5333 5327 5321
5639 5631 5625 5615 5606 5597 5589 5581 5568 5558 5547 5536 5527 5513 5502 5493 5479 5470 5460 5444 5425 5414 5400 5389 5381 5368 5361 5359 5360 5360 5362 5365 5363 5361 5360 5360 5352 5352 5349 5346 5342 5337 5331 5325 5318
5627 5620 5611 5601 5592 5584 5574 5564 5553 5542 5535 5524 5516 5502 5489 5481 5474 5461 5449 5440 5418 5404 5392 5383 5376 5366 5358 5356 5357 5356 5357 5360 5360 5360 5356 5356 5353 5350 5347 5344 5340 5334 5329 5323 5317
5613 5605 5599 5591 5581 5572 5561 5551 5541 5528 5521 5512 5500 5491 5480 5469 5457 5448 5441 5425 5416 5401 5386 5378 5372 5364 5359 5357 5357 5358 5358 5359 5358 5357 5355 5353 5351 5348 5345 5342 5338 5333 5328 5323 5317
5598 5590 5580 5578 5566 5558 5548 5538 5528 5517 5512 5500 5490 5481 5470 5462 5452 5439 5427 5415 5405 5395 5384 5376 5371 5366 5363 5360 5360 5361 5358 5358 5357 5356 5354 5351 5349 5347 5345 5341 5337 5333 5329 5324 5317